Location: Newark
(23.1300°N, 73.6109°E)
Time: 15:56:08
(UTC+00:00)

NOAA 18 - Pass Details

Date: 11 July 2020
Orbit: 839 x 862 km, 99.0° (Epoch: 05 August)

Event Time Altitude Azimuth Distance (km) Brightness Sun altitude
Exits shadow 16:13:42 79° 196° (SSW) 875 5.1 -27.6°
Maximum altitude 16:14:00 85° 256° (WSW) 865 5.1 -27.6°
Drops below altitude 10° 16:19:33 10° 346° (NNW) 2,487 8.3 -28.5°
Sets 16:21:55 0° 347° (NNW) 3,423 9.2 -28.9°
